EDT,Max TemperatureF,Mean TemperatureF,Min TemperatureF,Max Dew PointF,MeanDew PointF,Min DewpointF,Max Humidity, Mean Humidity, Min Humidity, Max Sea Level PressureIn, Mean Sea Level PressureIn, Min Sea Level PressureIn, Max VisibilityMiles, Mean VisibilityMiles, Min VisibilityMiles, Max Wind SpeedMPH, Mean Wind SpeedMPH, Max Gust SpeedMPH,PrecipitationIn, CloudCover, Events, WindDirDegrees
2013-5-1,77,58,39,37,30,23,76,45,14,30.43,30.39,30.34,10,10,10,15,4,20,0.00,0,,168
2013-5-2,79,60,40,41,38,36,86,69,49,30.46,30.44,30.42,10,10,10,25,6,35,0.00,0,,0
2013-5-3,71,60,48,40,33,28,55,39,22,30.47,30.38,30.33,10,10,10,18,7,26,0.00,0,,122
2013-5-4,75,57,39,43,35,21,92,56,19,30.35,30.27,30.19,10,10,10,15,5,20,0.00,0,,113
2013-5-5,76,57,38,34,28,18,62,37,11,30.28,30.22,30.14,10,10,10,15,5,20,0.00,0,,124
2013-5-6,75,56,36,42,37,32,92,57,22,30.24,30.17,30.09,10,10,10,12,2,17,0.00,0,,336
2013-5-7,80,62,43,52,46,39,92,60,28,30.17,30.11,30.04,10,10,4,12,2,14,0.00,1,,230
2013-5-8,74,63,52,59,54,50,89,68,46,30.15,30.07,30.00,10,9,2,22,7,29,0.16,5,Rain,130
2013-5-9,69,59,49,55,51,49,93,70,47,30.00,29.94,29.86,10,9,2,12,3,15,0.01,5,Rain,162
2013-5-10,75,60,45,53,47,44,100,69,38,29.98,29.93,29.83,10,5,0,14,3,18,0.00,3,Fog,224
2013-5-11,70,62,54,62,57,51,87,70,53,29.81,29.72,29.66,10,8,2,18,6,29,0.33,8,Rain,204
2013-5-12,58,49,40,51,38,25,89,60,30,29.87,29.72,29.66,10,10,10,21,5,28,T,6,,278
2013-5-13,48,43,38,32,27,24,76,59,42,30.08,29.98,29.88,10,10,10,16,7,26,0.00,8,,268
2013-5-14,55,42,29,34,29,26,92,64,35,30.11,30.07,30.02,10,10,10,12,3,17,0.00,4,,288
2013-5-15,62,45,28,49,38,26,92,61,30,30.06,29.84,29.63,10,10,4,20,6,29,0.06,3,Rain-Thunderstorm,185
2013-5-16,76,57,37,45,37,27,86,53,20,29.85,29.74,29.69,10,10,10,25,8,43,0.00,0,,285
2013-5-17,68,57,45,40,37,33,76,54,31,30.23,30.07,29.87,10,10,10,17,6,24,0.00,3,,336
2013-5-18,72,55,38,44,39,35,92,61,29,30.32,30.26,30.22,10,10,10,10,3,13,0.00,3,,279
2013-5-19,61,52,43,53,49,41,96,83,69,30.31,30.26,30.17,10,9,4,13,3,17,0.06,6,Rain,153
2013-5-20,76,65,53,62,56,51,97,79,60,30.14,30.04,29.95,10,10,4,6,2,,0.00,6,,143
2013-5-21,86,71,55,65,59,54,100,72,44,29.95,29.89,29.79,10,5,0,26,5,36,2.05,4,Fog-Rain-Thunderstorm,138
2013-5-22,80,70,59,70,62,55,90,77,64,29.93,29.86,29.78,10,6,1,17,6,24,1.38,6,Rain-Thunderstorm,183
2013-5-23,77,69,61,66,62,59,93,79,64,29.83,29.79,29.73,10,9,2,17,5,26,0.20,5,Rain,181
2013-5-24,66,55,43,63,51,39,93,84,74,29.96,29.79,29.65,10,7,1,22,7,30,0.72,8,Rain,298
2013-5-25,45,43,40,41,38,37,92,87,82,29.96,29.91,29.88,10,7,4,23,11,35,0.88,8,Rain,331
2013-5-26,53,45,36,45,39,35,92,79,66,30.14,29.93,29.84,10,8,2,18,6,29,0.21,7,Rain,319
2013-5-27,68,51,33,42,36,32,100,66,32,30.20,30.15,30.11,10,8,1,15,4,21,0.00,0,,259
2013-5-28,73,55,36,52,41,35,92,61,30,30.23,30.17,30.11,10,10,10,14,4,17,0.01,2,,196
2013-5-29,78,68,57,68,61,52,100,85,69,30.12,30.03,29.95,10,7,0,13,3,17,1.09,7,Fog-Rain-Thunderstorm,184
2013-5-30,84,70,55,67,60,54,100,76,51,30.13,30.08,30.05,10,5,0,14,3,20,0.00,4,Fog,226
2013-5-31,89,74,58,67,61,57,97,70,43,30.13,30.07,29.94,10,5,0,14,3,18,0.00,1,Fog,222